• In Uzbekistan
  • List of Countries
  • For 7 days
  • Water Temperature
  • Weather Map
  • Weather Widgets
  • user-avatar
    Login

    Hourly Weather Sulukta

    Today, 17 September, Tuesday

    Time Temperature Precipitation Wind Pressure Humidity
    00:00 +13°C° 0 mm 1 mps 650 mmHg 40%
    01:00 +12°C° 0 mm 1 mps 650 mmHg 42%
    02:00 +11°C° 0 mm 1 mps 650 mmHg 44%
    03:00 +11°C° 0 mm 1 mps 650 mmHg 45%
    04:00 +11°C° 0 mm 1 mps 650 mmHg 46%
    05:00 +9°C° 0 mm 0 mps 650 mmHg 47%
    06:00 +12°C° 0 mm 1 mps 651 mmHg 42%
    07:00 +15°C° 0 mm 1 mps 652 mmHg 36%
    08:00 +18°C° 0 mm 1 mps 653 mmHg 30%
    09:00 +18°C° 0 mm 2 mps 653 mmHg 29%
    10:00 +19°C° 0 mm 3 mps 653 mmHg 27%
    11:00 +20°C° 0 mm 4 mps 653 mmHg 25%
    12:00 +21°C° 0 mm 4 mps 653 mmHg 24%
    13:00 +22°C° 0 mm 4 mps 653 mmHg 24%
    14:00 +23°C° 0 mm 4 mps 652 mmHg 23%
    15:00 +23°C° 0 mm 4 mps 652 mmHg 23%
    16:00 +23°C° 0 mm 4 mps 652 mmHg 23%
    17:00 +23°C° 0 mm 4 mps 651 mmHg 23%
    18:00 +21°C° 0 mm 4 mps 651 mmHg 27%
    19:00 +19°C° 0 mm 3 mps 651 mmHg 30%
    20:00 +17°C° 0 mm 2 mps 650 mmHg 34%
    21:00 +17°C° 0 mm 2 mps 650 mmHg 34%
    22:00 +17°C° 0 mm 2 mps 650 mmHg 34%
    23:00 +16°C° 0 mm 2 mps 649 mmHg 35%

    Tomorrow, 18 September, Wednesday

    Time Temperature Precipitation Wind Pressure Humidity
    00:00 +16°C° 0 mm 2 mps 649 mmHg 34%
    01:00 +16°C° 0 mm 3 mps 649 mmHg 34%
    02:00 +16°C° 0 mm 3 mps 648 mmHg 33%
    03:00 +14°C° 0 mm 3 mps 648 mmHg 35%
    04:00 +15°C° 0 mm 2 mps 648 mmHg 36%
    05:00 +14°C° 0 mm 2 mps 648 mmHg 38%
    06:00 +17°C° 0 mm 2 mps 649 mmHg 33%
    07:00 +19°C° 0 mm 2 mps 649 mmHg 27%
    08:00 +21°C° 0 mm 2 mps 650 mmHg 22%
    09:00 +24°C° 0 mm 3 mps 650 mmHg 20%
    10:00 +25°C° 0 mm 3 mps 651 mmHg 18%
    11:00 +27°C° 0 mm 4 mps 651 mmHg 16%
    12:00 +27°C° 0 mm 4 mps 651 mmHg 15%
    13:00 +28°C° 0 mm 4 mps 651 mmHg 15%
    14:00 +29°C° 0 mm 4 mps 650 mmHg 14%
    15:00 +29°C° 0 mm 3 mps 650 mmHg 14%
    16:00 +28°C° 0 mm 3 mps 651 mmHg 14%
    17:00 +28°C° 0 mm 2 mps 651 mmHg 14%
    18:00 +26°C° 0 mm 2 mps 650 mmHg 17%
    19:00 +24°C° 0 mm 2 mps 650 mmHg 19%
    20:00 +21°C° 0 mm 1 mps 650 mmHg 22%
    21:00 +20°C° 0 mm 2 mps 650 mmHg 21%
    22:00 +20°C° 0 mm 2 mps 650 mmHg 21%
    23:00 +20°C° 0 mm 2 mps 650 mmHg 20%

    Day after tomorrow, 19 September, Thursday

    Time Temperature Precipitation Wind Pressure Humidity
    00:00 +19°C° 0 mm 2 mps 650 mmHg 20%
    01:00 +19°C° 0 mm 1 mps 650 mmHg 21%
    02:00 +19°C° 0 mm 1 mps 650 mmHg 21%
    03:00 +18°C° 0 mm 1 mps 650 mmHg 21%
    04:00 +18°C° 0 mm 1 mps 650 mmHg 22%
    05:00 +18°C° 0 mm 1 mps 650 mmHg 23%
    06:00 +20°C° 0 mm 1 mps 651 mmHg 20%
    07:00 +22°C° 0 mm 1 mps 652 mmHg 18%
    08:00 +25°C° 0 mm 1 mps 652 mmHg 16%
    09:00 +26°C° 0 mm 2 mps 653 mmHg 15%
    10:00 +27°C° 0 mm 2 mps 653 mmHg 14%
    11:00 +29°C° 0 mm 3 mps 653 mmHg 12%
    12:00 +29°C° 0 mm 3 mps 653 mmHg 12%
    13:00 +30°C° 0 mm 3 mps 653 mmHg 12%
    14:00 +30°C° 0 mm 3 mps 653 mmHg 11%
    15:00 +30°C° 0 mm 3 mps 652 mmHg 12%
    16:00 +30°C° 0 mm 2 mps 652 mmHg 12%
    17:00 +29°C° 0 mm 2 mps 652 mmHg 12%
    18:00 +27°C° 0 mm 1 mps 652 mmHg 15%
    19:00 +24°C° 0 mm 1 mps 651 mmHg 19%
    20:00 +21°C° 0 mm 1 mps 650 mmHg 22%
    21:00 +21°C° 0 mm 1 mps 650 mmHg 22%
    22:00 +20°C° 0 mm 1 mps 650 mmHg 23%
    23:00 +20°C° 0 mm 1 mps 650 mmHg 23%

    20 September, Friday

    Time Temperature Precipitation Wind Pressure Humidity
    00:00 +19°C° 0 mm 1 mps 650 mmHg 24%
    01:00 +19°C° 0 mm 1 mps 649 mmHg 24%
    02:00 +18°C° 0 mm 1 mps 649 mmHg 25%
    03:00 +16°C° 0 mm 1 mps 649 mmHg 26%
    04:00 +16°C° 0 mm 1 mps 649 mmHg 27%
    05:00 +15°C° 0 mm 1 mps 649 mmHg 28%
    06:00 +18°C° 0 mm 1 mps 649 mmHg 26%
    07:00 +20°C° 0 mm 1 mps 650 mmHg 23%
    08:00 +22°C° 0 mm 1 mps 651 mmHg 21%
    09:00 +24°C° 0 mm 2 mps 651 mmHg 20%
    10:00 +25°C° 0 mm 2 mps 651 mmHg 19%
    11:00 +26°C° 0 mm 3 mps 651 mmHg 18%
    12:00 +27°C° 0 mm 3 mps 651 mmHg 18%
    13:00 +27°C° 0 mm 3 mps 651 mmHg 18%
    14:00 +28°C° 0 mm 3 mps 650 mmHg 17%
    15:00 +28°C° 0 mm 3 mps 650 mmHg 18%
    16:00 +27°C° 0 mm 3 mps 650 mmHg 18%
    17:00 +27°C° 0 mm 3 mps 650 mmHg 18%
    18:00 +25°C° 0 mm 2 mps 650 mmHg 21%
    19:00 +23°C° 0 mm 2 mps 649 mmHg 24%
    20:00 +21°C° 0 mm 1 mps 649 mmHg 27%
    21:00 +20°C° 0 mm 1 mps 649 mmHg 28%
    22:00 +19°C° 0 mm 1 mps 648 mmHg 30%
    23:00 +19°C° 0 mm 1 mps 648 mmHg 31%

    21 September, Saturday

    Time Temperature Precipitation Wind Pressure Humidity
    00:00 +18°C° 0 mm 1 mps 648 mmHg 31%
    01:00 +18°C° 0 mm 1 mps 648 mmHg 32%
    02:00 +16°C° 0 mm 1 mps 647 mmHg 32%
    03:00 +16°C° 0 mm 1 mps 647 mmHg 32%
    04:00 +16°C° 0 mm 1 mps 647 mmHg 31%
    05:00 +16°C° 0 mm 1 mps 647 mmHg 30%
    06:00 +20°C° 0 mm 1 mps 648 mmHg 26%
    07:00 +21°C° 0 mm 2 mps 649 mmHg 23%
    08:00 +24°C° 0 mm 2 mps 650 mmHg 19%
    09:00 +26°C° 0 mm 2 mps 650 mmHg 17%
    10:00 +28°C° 0 mm 3 mps 650 mmHg 15%
    11:00 +30°C° 0 mm 4 mps 650 mmHg 13%
    12:00 +30°C° 0 mm 4 mps 650 mmHg 13%
    13:00 +32°C° 0 mm 4 mps 649 mmHg 13%
    14:00 +33°C° 0 mm 4 mps 649 mmHg 13%
    15:00 +31°C° 0 mm 3 mps 649 mmHg 13%
    16:00 +31°C° 0 mm 3 mps 649 mmHg 13%
    17:00 +31°C° 0 mm 3 mps 648 mmHg 14%
    18:00 +28°C° 0 mm 2 mps 648 mmHg 17%
    19:00 +25°C° 0 mm 1 mps 647 mmHg 21%
    20:00 +22°C° 0 mm 1 mps 647 mmHg 25%
    21:00 +21°C° 0 mm 1 mps 646 mmHg 25%
    22:00 +21°C° 0 mm 1 mps 646 mmHg 26%
    23:00 +21°C° 0 mm 1 mps 646 mmHg 26%

    22 September, Sunday

    Time Temperature Precipitation Wind Pressure Humidity
    00:00 +20°C° 0 mm 1 mps 646 mmHg 27%
    01:00 +20°C° 0 mm 1 mps 646 mmHg 28%
    02:00 +19°C° 0 mm 1 mps 646 mmHg 28%
    03:00 +19°C° 0 mm 1 mps 646 mmHg 30%
    04:00 +16°C° 0 mm 0 mps 646 mmHg 31%
    05:00 +15°C° 0 mm 0 mps 646 mmHg 33%
    06:00 +20°C° 0 mm 1 mps 647 mmHg 27%
    07:00 +23°C° 0 mm 1 mps 648 mmHg 22%
    08:00 +26°C° 0 mm 1 mps 649 mmHg 16%
    09:00 +28°C° 0 mm 1 mps 650 mmHg 15%
    10:00 +29°C° 0 mm 2 mps 650 mmHg 14%
    11:00 +31°C° 0 mm 2 mps 650 mmHg 12%
    12:00 +33°C° 0 mm 3 mps 650 mmHg 11%
    13:00 +33°C° 0 mm 3 mps 650 mmHg 10%
    14:00 +34°C° 0 mm 3 mps 650 mmHg 10%
    15:00 +34°C° 0 mm 3 mps 650 mmHg 10%
    16:00 +32°C° 0 mm 2 mps 650 mmHg 9%
    17:00 +32°C° 0 mm 2 mps 650 mmHg 9%
    18:00 +29°C° 0 mm 2 mps 649 mmHg 12%
    19:00 +26°C° 0 mm 1 mps 649 mmHg 15%
    20:00 +23°C° 0 mm 1 mps 648 mmHg 17%
    21:00 +23°C° 0 mm 1 mps 648 mmHg 17%
    22:00 +23°C° 0 mm 1 mps 649 mmHg 17%
    23:00 +23°C° 0 mm 1 mps 649 mmHg 17%
    Show more